Weather History for Faleolo, Samoa

Change the Weather History Date:

Thursday, February 21, 2013

  Actual Average Record
Temperature  
Mean Temperature 80 °F -  
Max Temperature 87 °F 85 °F 87 °F (2001)
Min Temperature 73 °F 74 °F 68 °F (1999)
Cooling Degree Days 15    
Growing Degree Days 30 (Base 50)    
Moisture  
Dew Point 74 °F    
Average Humidity 81    
Maximum Humidity 94    
Minimum Humidity 63    
Precipitation  
Precipitation 0.00 in - - ()
Sea Level Pressure  
Sea Level Pressure 29.82 in    
Wind  
Wind Speed 5 mph ()    
Max Wind Speed 10 mph    
Max Gust Speed -    
Visibility 7.4 miles    
Events      
Averages and records for this station are not official NWS values.
T = Trace of Precipitation, MM = Missing Value Source: Averaged Metar Reports

Daily Weather History Graph

Daily Weather History Graph

Search for Another Location

Airport:

Trip Planner

Search our weather history database for the weather conditions in past years. The results will help you decide how hot, cold, wet, or windy it might be!

Date:

Astronomy

Feb. 22, 2013 Rise Set
Actual Time 7:27 AM WSDT 7:55 PM WSDT
Civil Twilight 7:06 AM WSDT 8:16 PM WSDT
Nautical Twilight 6:40 AM WSDT 8:42 PM WSDT
Astronomical Twilight 6:15 AM WSDT 9:07 PM WSDT
Moon 4:16 PM WSDT (2/21) 3:09 AM WSDT (2/21)
Length of Visible Light 13h 10m
Length of Day
12h 27m
Waxing Gibbous, 77% of the Moon is Illuminated
Feb 21
Waxing Gibbous
Feb 26
Full
Mar 5
Last Quarter
Mar 12
New
Mar 20
First Quarter

Hourly Weather History & Observations

Time (WSDT) Temp. Heat Index Dew Point Humidity Pressure Visibility Wind Dir Wind Speed Gust Speed Precip Events Conditions
1:00 AM 73.4 °F - 71.6 °F 94% 29.83 in 6.2 mi SE 3.5 mph - N/A   Overcast
2:00 AM 74 °F - 71 °F 86% 29.83 in 12 mi ESE 4.6 mph - -   Mostly Cloudy
2:00 AM 73.4 °F - 69.8 °F 88% 29.80 in 6.2 mi ESE 4.6 mph - N/A   Mostly Cloudy
4:00 AM 73.4 °F - 69.8 °F 88% 29.80 in 6.2 mi ESE 4.6 mph - N/A   Mostly Cloudy
5:00 AM 73 °F - 70 °F 86% 29.78 in 12 mi ESE 4.6 mph - -   Scattered Clouds
5:00 AM 73.4 °F - 69.8 °F 88% 29.77 in 6.2 mi ESE 4.6 mph - N/A   Mostly Cloudy
6:00 AM 73.4 °F - 69.8 °F 88% 29.77 in 6.2 mi SE 4.6 mph - N/A   Scattered Clouds
7:00 AM 73.4 °F - 71.6 °F 94% 29.80 in 6.2 mi SE 5.8 mph - N/A   Mostly Cloudy
8:00 AM 75.2 °F - 71.6 °F 89% 29.80 in 6.2 mi SE 5.8 mph - N/A   Mostly Cloudy
9:00 AM 78.8 °F - 73.4 °F 83% 29.83 in 6.2 mi ESE 5.8 mph - N/A   Mostly Cloudy
10:00 AM 82.4 °F 89.5 °F 75.2 °F 79% 29.83 in 6.2 mi ESE 6.9 mph - N/A   Mostly Cloudy
11:00 AM 82.4 °F 90.9 °F 77.0 °F 84% 29.86 in 6.2 mi NE 6.9 mph - N/A   Mostly Cloudy
12:00 PM 84.2 °F 92.3 °F 75.2 °F 74% 29.83 in 6.2 mi ENE 4.6 mph - N/A   Mostly Cloudy
1:00 PM 86.0 °F 96.9 °F 77.0 °F 74% 29.83 in 6.2 mi ENE 8.1 mph - N/A   Mostly Cloudy
2:00 PM 87 °F - 76 °F 63% 29.83 in 12 mi East 9.2 mph - -   Partly Cloudy
2:00 PM 86.0 °F 96.9 °F 77.0 °F 74% 29.83 in 6.2 mi East 9.2 mph - N/A   Mostly Cloudy
3:00 PM 87.8 °F 97.6 °F 75.2 °F 66% 29.80 in 6.2 mi NNE 3.5 mph - N/A   Mostly Cloudy
4:00 PM 87.8 °F 99.7 °F 77.0 °F 70% 29.80 in 6.2 mi East 4.6 mph - N/A   Mostly Cloudy
5:00 PM 86 °F - 76 °F 66% 29.80 in 12 mi East 10.4 mph - -   Partly Cloudy
5:00 PM 86.0 °F 96.9 °F 77.0 °F 74% 29.80 in 6.2 mi East 10.4 mph - N/A   Mostly Cloudy
6:00 PM 84.2 °F 94.1 °F 77.0 °F 79% 29.80 in 6.2 mi ENE 6.9 mph - N/A   Mostly Cloudy
7:00 PM 84.2 °F 94.1 °F 77.0 °F 79% 29.80 in 6.2 mi ENE 8.1 mph - N/A   Mostly Cloudy
8:00 PM 83 °F - 76 °F 73% 29.83 in 12 mi ESE 6.9 mph - -   Scattered Clouds
8:00 PM 82.4 °F 89.5 °F 75.2 °F 79% 29.83 in 6.2 mi ESE 6.9 mph - N/A   Mostly Cloudy
9:00 PM 82.4 °F 90.9 °F 77.0 °F 84% 29.83 in 6.2 mi East 5.8 mph - N/A   Mostly Cloudy
10:00 PM - - - N/A% - 6.2 mi East 9.2 mph - N/A   Mostly Cloudy
11:00 PM 80 °F - 77 °F 86% 29.87 in 12 mi East 10.4 mph - -   Scattered Clouds
11:00 PM 80.6 °F 87.1 °F 77.0 °F 89% 29.86 in 6.2 mi East 10.4 mph - N/A   Mostly Cloudy